Theta_e
301 300 298 294 292 291 290 290 290 290 290 290 290 289 289 289 288 288 288 288 288 288 287 287 287 287 287 287 287 287 287 286 286 285 285 285 285 285 285 285 284 284
299 298 295 292 291 290 290 290 290 291 290 290 290 289 289 288 288 288 288 287 287 287 287 287 287 287 287 287 287 287 286 286 286 285 285 285 285 285 285 284 284 284
296 294 292 291 290 290 290 290 290 291 290 290 289 289 288 288 288 287 287 287 287 287 287 286 286 287 287 287 286 286 286 286 285 285 284 285 285 284 284 284 284 283
293 291 290 290 290 290 290 290 290 290 290 289 289 288 288 288 287 287 287 287 287 287 286 286 286 287 287 286 286 286 285 285 285 285 284 284 284 284 284 284 283 283
291 290 290 290 290 290 290 290 290 289 289 289 288 288 288 288 287 287 287 287 286 286 286 286 286 286 286 286 286 285 285 285 285 285 284 284 284 284 284 283 283 283
290 289 289 289 290 290 290 290 290 289 289 288 288 288 288 287 287 287 287 287 286 286 286 286 286 286 286 286 285 285 285 285 285 284 284 284 284 283 283 283 283 283
289 289 289 289 289 290 290 290 289 289 288 288 288 288 287 287 287 287 287 287 286 286 287 286 286 286 286 285 285 285 284 284 284 284 284 284 284 283 283 283 283 282
289 289 288 288 289 289 289 289 289 288 288 288 288 287 287 287 287 287 287 286 286 286 286 286 286 286 286 285 285 284 284 284 284 284 284 284 283 283 283 283 282 282
288 288 288 288 288 289 289 289 288 288 288 288 288 287 287 287 287 287 286 286 286 286 286 286 286 286 286 285 284 284 284 284 284 284 284 284 283 283 283 282 282 282
288 288 288 288 288 288 288 288 288 288 287 287 287 287 287 286 286 286 286 286 286 286 286 286 286 286 286 285 284 284 284 284 284 284 284 283 283 283 282 282 282 282
288 288 288 288 288 288 288 288 287 287 287 287 287 287 287 286 286 286 286 286 286 286 286 286 286 286 286 285 284 284 284 284 284 284 284 283 283 282 282 282 282 282
288 288 288 287 287 287 288 287 287 287 287 287 287 287 286 286 286 286 286 286 286 286 287 287 286 286 285 285 284 283 283 283 283 283 283 283 282 282 282 282 282 281
288 288 288 287 287 287 287 287 287 286 286 286 286 286 286 286 286 286 286 286 286 286 286 286 286 286 285 284 284 283 284 284 283 283 283 282 282 282 282 282 281 281
289 288 287 287 287 287 287 287 286 286 286 286 286 286 286 286 286 286 285 285 285 285 286 286 286 285 285 284 283 283 284 284 284 284 283 282 282 282 281 281 281 281
288 287 287 287 286 286 286 286 286 286 286 286 286 286 286 286 286 285 285 285 285 285 285 285 285 285 285 284 283 284 284 284 284 284 283 282 282 282 281 281 281 281
288 287 287 286 286 286 286 286 286 286 285 285 285 285 285 285 285 285 285 285 285 285 285 285 285 285 284 284 284 284 285 285 284 284 284 282 282 282 281 281 281 281
287 287 286 286 286 286 286 286 286 285 285 285 285 285 285 285 285 285 285 285 285 285 285 285 285 285 284 284 284 284 285 285 285 285 284 283 282 282 282 282 281 281
287 287 286 286 286 286 286 286 285 285 284 284 284 285 285 285 285 285 285 285 285 285 285 285 285 284 284 283 283 284 285 285 285 285 284 283 282 282 282 282 282 281
287 286 286 286 286 286 286 286 285 285 284 284 285 285 285 285 285 285 285 285 285 285 285 285 285 284 284 283 284 285 286 286 285 285 284 283 282 282 282 282 282 281
286 286 286 286 286 286 286 285 285 285 284 284 284 284 285 285 285 285 285 285 285 285 285 285 285 284 284 283 284 285 286 286 285 285 284 283 283 282 282 282 282 282
286 286 286 286 286 286 285 285 285 284 284 284 284 284 285 285 285 285 285 285 285 285 285 285 285 285 284 284 285 286 287 286 285 284 284 283 283 283 282 282 282 282
286 286 286 286 285 285 284 284 284 284 284 284 284 284 285 285 285 285 285 285 285 284 284 285 285 285 284 284 285 286 286 285 285 285 284 283 283 283 283 283 282 282
287 286 286 286 285 284 284 284 284 284 284 284 284 284 284 285 285 286 285 285 285 284 284 285 285 285 284 284 284 285 285 284 284 285 284 284 284 284 283 283 283 282
287 286 286 285 285 285 285 285 285 284 284 283 284 284 284 285 285 285 284 284 284 284 285 285 285 285 285 284 283 282 282 282 283 283 284 284 284 284 284 283 283 283
287 286 286 286 286 286 286 286 285 284 284 283 283 283 284 284 284 283 283 283 284 284 284 284 284 285 284 284 283 281 281 281 282 282 282 283 284 284 284 284 284 283
287 287 287 287 287 287 286 286 285 284 283 283 283 283 283 283 282 282 282 283 283 283 283 283 284 284 284 284 283 281 280 280 280 281 281 282 283 284 284 284 284 284
Wind_Speed
38 40 43 45 46 45 44 43 41 40 38 37 35 34 32 30 29 27 26 25 23 22 22 21 20 19 18 16 14 13 12 11 11 11 10 9 8 7 6 6 5 4
40 41 44 46 46 45 44 42 41 39 38 36 34 33 33 31 30 28 26 26 24 23 22 21 19 18 16 15 14 13 12 12 12 12 11 9 8 7 6 5 5 4
41 43 45 46 46 45 43 41 40 38 37 36 35 34 33 32 30 29 27 26 25 24 22 21 19 17 15 15 14 13 13 12 12 12 11 9 8 7 7 6 5 4
42 44 45 45 46 45 43 42 40 38 37 36 35 34 33 32 31 30 28 26 25 24 23 21 19 18 16 15 15 14 14 13 13 12 11 10 9 8 7 6 5 5
43 44 45 45 45 44 43 42 41 40 38 37 36 35 34 33 32 31 29 28 26 25 24 22 20 18 17 16 16 16 15 15 14 13 12 11 11 9 8 7 6 5
43 44 44 45 45 44 44 42 41 41 39 38 37 36 34 33 32 31 30 29 27 25 24 22 21 19 18 17 17 16 16 15 15 14 13 12 11 10 9 8 7 6
45 44 44 44 44 44 44 43 42 41 40 39 38 36 35 34 33 31 30 29 27 26 24 22 21 20 19 18 17 17 17 16 15 15 14 12 11 10 9 9 8 8
45 45 44 44 44 44 44 43 43 41 40 39 38 37 35 34 33 32 30 29 28 26 24 23 21 20 19 19 18 18 18 17 16 15 14 12 11 11 11 10 10 10
44 44 44 44 44 44 44 44 43 42 41 40 38 37 36 34 33 32 31 29 28 26 25 23 21 20 20 20 20 19 18 17 16 15 14 12 12 12 12 11 11 11
43 43 44 44 44 45 45 44 43 43 41 40 39 37 37 36 34 32 31 30 28 27 25 24 22 22 21 21 20 20 19 18 17 15 13 12 13 13 12 12 12 12
43 43 44 45 45 45 45 44 44 43 42 41 40 39 38 37 35 34 32 31 29 28 26 25 24 23 22 22 22 21 19 18 16 15 14 14 14 14 13 13 13 13
43 44 45 45 45 44 44 44 44 43 42 41 40 39 38 37 36 35 33 31 29 28 27 26 25 24 24 23 23 22 20 19 17 15 15 15 15 14 14 14 14 14
43 44 44 43 43 43 43 44 43 42 42 41 40 39 38 37 36 34 33 31 30 29 27 26 25 25 24 24 24 23 21 20 18 16 16 16 16 15 15 15 15 15
42 42 42 41 41 42 42 43 43 42 41 41 40 39 38 38 36 34 33 32 30 29 27 26 25 25 25 25 25 24 22 20 19 17 17 17 17 17 16 16 16 16
39 39 39 40 40 41 42 42 43 42 41 41 40 39 38 37 35 34 34 33 31 29 27 27 26 27 27 26 26 25 23 21 19 18 18 18 18 18 18 18 17 17
36 37 38 39 40 41 41 42 42 42 41 41 40 39 38 37 36 35 35 34 32 30 29 29 28 28 28 27 27 25 23 21 20 19 19 19 20 20 19 19 18 18
35 36 37 38 39 39 40 40 40 40 40 40 40 39 38 37 36 36 35 34 33 32 31 30 30 30 29 28 27 25 23 22 21 21 21 21 22 22 21 19 18 18
34 35 35 37 37 38 38 38 38 39 39 39 39 38 38 37 37 37 36 35 34 33 32 32 31 31 31 30 28 26 24 23 23 23 23 23 24 23 22 20 19 19
34 34 35 36 36 37 38 37 37 38 39 40 39 38 38 38 37 38 37 36 35 34 34 33 33 32 32 31 29 27 25 25 26 25 25 25 24 24 22 21 20 20
33 33 34 34 35 36 37 37 38 38 39 40 39 39 38 39 39 39 38 38 37 36 35 35 34 34 33 32 30 27 27 28 28 27 27 26 25 24 23 22 22 22
32 32 32 33 34 35 36 36 37 38 38 39 39 40 40 41 41 40 40 40 38 37 37 36 36 36 35 34 32 29 29 31 30 29 28 28 27 26 25 24 23 23
31 32 33 33 34 34 34 35 36 37 38 38 39 39 40 41 41 41 41 41 40 39 39 39 38 37 36 36 34 32 32 33 32 31 30 30 29 28 27 27 25 25
33 33 34 33 33 33 34 34 35 37 38 38 38 39 40 41 42 43 43 42 42 41 41 41 40 39 38 38 36 35 34 35 34 33 32 32 31 30 29 29 28 27
33 33 33 32 32 33 34 35 35 36 37 38 39 39 41 42 43 43 42 42 42 43 43 43 42 41 40 39 38 36 34 35 36 35 34 34 33 32 32 31 30 30
32 32 32 32 33 34 34 35 36 37 37 37 39 40 40 41 41 40 41 42 42 43 43 43 43 43 42 40 38 36 34 34 35 35 35 36 35 34 34 34 33 32
30 31 32 32 33 34 35 35 36 36 36 37 38 39 39 38 38 38 39 41 42 42 43 43 44 43 42 40 38 36 35 34 35 37 38 38 38 36 36 37 36 35
Wind_Direction
190 188 184 180 177 176 175 174 173 171 169 168 165 163 161 161 160 160 160 158 156 154 152 151 150 147 143 138 137 138 140 143 144 144 147 146 139 134 132 128 125 126
191 188 184 180 178 178 178 177 176 174 171 170 167 165 164 163 163 163 163 161 159 158 156 155 153 150 145 142 145 150 153 158 156 155 158 155 148 147 148 146 147 149
192 188 184 182 181 180 179 179 177 176 174 171 170 168 167 166 165 165 166 164 163 162 160 158 156 153 151 151 156 162 166 169 166 163 165 164 160 162 160 161 165 167
192 188 185 184 183 182 181 180 179 178 176 174 172 172 170 169 168 168 168 168 167 165 163 162 160 158 159 161 167 173 175 176 175 171 172 173 171 172 170 171 180 184
192 190 187 186 186 185 184 183 182 180 178 176 175 175 174 172 172 171 171 172 171 169 166 165 165 165 167 172 176 181 183 182 181 179 182 182 178 178 180 182 191 200
193 191 189 188 188 187 186 186 185 182 181 179 178 178 177 176 175 174 174 174 174 173 170 169 170 171 175 179 183 189 190 189 188 186 189 188 183 184 187 193 204 211
194 193 191 191 190 189 189 188 187 185 183 182 181 181 180 179 178 178 177 177 176 176 175 174 175 176 180 185 190 194 196 195 194 191 192 193 190 191 194 201 210 216
195 194 193 192 192 191 191 191 189 188 186 185 184 184 183 183 182 181 180 180 179 179 179 179 179 181 186 192 196 200 201 200 198 197 198 199 196 199 202 207 215 220
197 196 195 195 194 194 193 193 191 190 189 188 187 186 186 186 186 184 183 183 183 183 182 182 182 186 192 197 201 205 207 204 202 202 204 206 207 207 208 212 218 223
199 198 197 197 197 196 195 195 194 192 192 191 190 190 189 189 189 188 187 186 186 186 185 185 187 191 196 201 204 208 211 210 207 207 209 213 216 215 215 218 222 226
201 200 199 199 199 198 198 197 196 195 194 194 194 194 193 192 192 191 191 190 189 188 188 189 192 195 198 203 206 208 212 214 213 212 213 217 220 221 222 224 227 231
202 202 202 201 201 200 199 199 198 198 197 196 197 197 196 195 195 195 194 194 193 192 192 194 196 198 201 205 207 208 210 214 215 215 217 220 224 226 228 230 232 234
203 204 203 202 202 201 201 201 200 200 199 199 200 200 200 199 198 197 198 198 197 196 196 197 199 201 205 207 209 211 212 214 214 216 220 223 226 229 231 233 235 236
205 204 204 203 203 202 202 203 202 202 202 202 202 203 204 203 201 201 201 201 201 200 200 201 203 205 208 209 211 214 215 216 217 218 222 225 228 231 232 234 237 239
204 204 204 203 203 203 204 204 204 204 204 204 205 206 207 206 205 205 205 204 204 203 203 204 206 209 211 211 212 215 216 217 219 221 225 228 230 231 233 235 238 241
204 203 203 203 203 204 205 206 206 205 206 206 207 208 209 209 208 209 209 208 207 205 206 207 209 212 214 214 215 218 220 220 221 224 226 229 231 233 234 236 238 241
204 204 203 203 204 204 206 207 207 207 207 208 209 210 211 211 211 212 212 212 211 209 209 210 212 215 216 216 217 219 221 222 224 227 227 228 231 233 235 237 239 241
203 203 203 204 204 205 207 208 209 209 209 210 211 212 212 212 213 215 216 215 214 213 213 214 215 217 217 218 218 219 221 225 226 227 228 229 231 233 235 237 238 240
202 203 203 205 205 206 208 209 210 210 210 211 213 214 214 214 216 217 218 218 217 216 217 218 218 219 219 219 219 219 223 227 228 228 229 230 232 234 236 237 239 240
202 203 204 205 207 208 209 210 211 211 212 213 214 215 215 217 218 220 221 221 220 220 220 221 221 222 222 220 219 221 227 230 228 229 231 231 233 235 237 237 239 242
202 203 204 206 208 209 210 211 211 212 213 214 216 217 218 219 220 222 223 224 223 223 223 224 224 224 223 221 220 224 230 231 229 229 231 233 234 235 237 238 240 243
202 204 206 208 209 210 211 211 213 214 215 216 217 218 220 221 222 224 226 226 226 225 225 227 227 226 225 223 223 226 229 230 230 230 231 234 236 236 238 239 240 243
205 206 207 208 209 210 212 214 216 217 218 218 219 219 221 222 225 227 228 228 227 227 227 229 229 228 226 225 225 226 226 228 231 231 231 234 237 238 240 241 242 243
206 207 207 208 210 213 216 218 220 221 221 221 221 222 223 225 227 228 229 229 229 229 230 231 231 230 229 228 227 227 226 228 232 234 234 235 237 239 242 243 244 245
207 209 210 212 216 220 222 223 224 224 224 224 224 225 226 227 228 229 230 231 231 232 233 234 234 233 232 231 230 228 227 230 233 235 237 239 240 241 243 245 246 247
210 212 215 219 223 225 227 226 226 225 225 226 227 228 228 229 231 232 233 234 234 235 235 236 237 237 236 236 234 231 229 231 234 237 239 242 243 244 245 248 249 249